This is the latest recevied weather packets stored in our database for station/object N5PRN. If no packets are shown the sender has not sent any weather packets the latest 10 day(s).
| Time | Temp. | Humidity | Pressure | Rain* | Wind** | Luminosity | Snow |
|---|---|---|---|---|---|---|---|
| 1778021068 | 25.56° C | 87% | 1008.5 hPa | 0 mm | - | 76 W/m² | - |
| 1778020765 | 25.56° C | 88% | 1008.4 hPa | 0 mm | - | 92 W/m² | - |
| 1778020462 | 25.56° C | 88% | 1008.5 hPa | 0 mm | - | 84 W/m² | - |
| 1778020158 | 25.56° C | 87% | 1008.4 hPa | 0 mm | - | 80 W/m² | - |
| 1778019855 | 25.56° C | 87% | 1008.2 hPa | 0 mm | - | 95 W/m² | - |
| 1778019551 | 25.56° C | 86% | 1008.3 hPa | 0 mm | - | 120 W/m² | - |
| 1778019248 | 25.56° C | 87% | 1008.5 hPa | 0 mm | - | 150 W/m² | - |
| 1778018944 | 26.11° C | 86% | 1008.1 hPa | 0 mm | - | 131 W/m² | - |
| 1778018641 | 25.56° C | 86% | 1008.2 hPa | 0 mm | - | 203 W/m² | - |
| 1778018339 | 25.56° C | 86% | 1008.4 hPa | 0 mm | - | 216 W/m² | - |
| 1778018037 | 25.56° C | 86% | 1008.4 hPa | 0 mm | - | 249 W/m² | - |
| 1778017735 | 25.56° C | 87% | 1008.6 hPa | 0 mm | - | 315 W/m² | - |
| 1778017432 | 25.56° C | 87% | 1008.8 hPa | 0 mm | - | 192 W/m² | - |
| 1778017130 | 25.56° C | 87% | 1008.7 hPa | 0 mm | - | 152 W/m² | - |
| 1778016827 | 25.56° C | 87% | 1008.8 hPa | 0 mm | - | 175 W/m² | - |
| 1778016522 | 25.56° C | 86% | 1008.8 hPa | 0 mm | - | 196 W/m² | - |
| 1778016220 | 25.56° C | 87% | 1008.9 hPa | 0 mm | - | 316 W/m² | - |
| 1778015916 | 25° C | 87% | 1009.2 hPa | 0 mm | - | 253 W/m² | - |
| 1778015614 | 25° C | 88% | 1009.1 hPa | 0 mm | - | 180 W/m² | - |
| 1778015304 | 25° C | 88% | 1009.1 hPa | 0 mm | - | 167 W/m² | - |
| 1778015001 | 25° C | 88% | 1009.1 hPa | 0 mm | - | 172 W/m² | - |
| 1778014698 | 25° C | 88% | 1009.3 hPa | 0 mm | - | 104 W/m² | - |
| 1778014397 | 25° C | 88% | 1009 hPa | 0 mm | - | 200 W/m² | - |
| 1778014093 | 25° C | 88% | 1009.3 hPa | 0 mm | - | 111 W/m² | - |
| 1778013791 | 25° C | 87% | 1009.2 hPa | 0 mm | - | 89 W/m² | - |
* Rain latest hour (hover to see other rain measurements)
** Current wind speed in m/s (hover to see current wind gust speed)